Regional Weather Roundup
Issued by NWS

Home | Current Version | Previous Version | Text Only | Print | Product List | Glossary On
Versions: 1 2 3 4 5 6 7 8 9 10 11 12 13 14 15 16 17 18 19 20 21 22 23 24 25 26 27 28 29 30 31 32 33 34 35 36 37 38 39 40 41 42 43 44 45 46 47 48 49 50
000
ASUS43 KLSX 242059
RWRMO

WEATHER SUMMARY FOR MISSOURI
NATIONAL WEATHER SERVICE SPRINGFIELD MO
300 PM CST MON NOV 24 2014

NOTE: "FAIR" INDICATES FEW OR NO CLOUDS BELOW 12,000 FEET WITH NO
       SIGNIFICANT WEATHER AND/OR OBSTRUCTIONS TO VISIBILITY.
       CURRENT SKY AND/OR WEATHER CONDITIONS ARE NOT AVAILABLE FOR
       CHILLICOTHE AND FARMINGTON.

MOZ001>031-035>038-043-044-053-054-242200-
...NORTHERN AND WESTERN MISSOURI...

CITY           SKY/WX    TMP DP  RH WIND       PRES   REMARKS
KANSAS CTY INT PTSUNNY   37  24  59 W15       29.84R WCI  28
KANSAS C DTWN  CLOUDY    39  23  52 W10       29.85R
LEE`S SUMMIT   CLOUDY    37  23  56 W15       29.85R WCI  28
ST JOSEPH      CLOUDY    36  23  59 NW15G24   29.85R WCI  27
CHILLICOTHE      N/A     35  23  61 W8G22     29.82R WCI  29
KIRKSVILLE     CLOUDY    31  24  75 W18G24    29.76R WCI  19

$$
MOZ066>068-077>081-088>096-101>105-242200-
...SOUTHWEST MISSOURI...

CITY           SKY/WX    TMP DP  RH WIND       PRES   REMARKS
SPRINGFIELD    PTSUNNY   46  27  47 W20G29    29.84R
JOPLIN         MOSUNNY   50  27  40 W20G26    29.87R

$$
MOZ032>034-039>042-045>050-055>058-069>072-242200-
...CENTRAL MISSOURI...

CITY           SKY/WX    TMP DP  RH WIND       PRES   REMARKS
COLUMBIA       CLOUDY    39  27  62 W15G23    29.80R
JEFFERSON CITY CLOUDY    42  26  53 W16G24    29.81R
ROLLA          CLOUDY    41  27  57 W16       29.78R
SEDALIA        CLOUDY    39  26  59 W17       29.83R WCI  30
OSAGE BEACH    CLOUDY    45  27  49 W15G22    29.81R

$$
MOZ051-052-059>065-242200-
...EAST CENTRAL MISSOURI...

CITY           SKY/WX    TMP DP  RH WIND       PRES   REMARKS
ST LOUIS INTL  CLOUDY    41  27  57 W16G30    29.79R
SPIRIT OF STL  PTSUNNY   40  27  59 W15G30    29.78R
ST CHARLES     CLOUDY    39  28  64 W18       29.78R WCI  30

$$
MOZ072>076-082>087-097>100-106>115-242200-
...SOUTH CENTRAL AND SOUTHEAST MISSOURI...

CITY           SKY/WX    TMP DP  RH WIND       PRES   REMARKS
CAPE GIRARDEAU SUNNY     51  33  50 W20       29.80R
FARMINGTON     CLOUDY    46  27  46 SW13G18   29.79R
POPLAR BLUFF   MOSUNNY   54  26  34 W18G24    29.81R
WEST PLAINS    MOSUNNY   50  26  39 W17G28    29.82R

$$


USA.gov is the U.S. government's official web portal to all federal, state and local government web resources and services.